Regional Weather Roundup
Issued by NWS Kansas City/Pleasant Hill, MO

Current Version | Previous Version | Text Only | Print | Product List | Glossary On
Versions: 1 2 3 4 5 6 7 8 9 10 11 12 13 14 15 16 17 18 19 20 21 22 23 24 25 26 27 28 29 30 31 32 33 34 35 36 37 38 39 40 41 42 43 44 45 46 47 48 49 50
639 ASUS43 KEAX 190115 RWREAX WEATHER ROUNDUP FOR EASTERN KANSAS AND NORTHWEST MISSOURI NATIONAL WEATHER SERVICE KANSAS CITY/PLEASANT HILL MO 800 PM CDT SUN APR 18 2021 KSZ040-057-103>105-MOZ028-029-037-043-190200- ...KANSAS CITY METROPOLITAN AREA... CITY SKY/WX TMP DP RH WIND PRES REMARKS K.C. INTL PTCLDY 56 31 38 W5 29.96F K.C. DOWNTOWN CLEAR 55 29 36 SW5 29.96S LEES SUMMIT CLEAR 55 31 39 CALM 29.97F OLATHE - IXD CLEAR 54 31 41 W3 29.98S OLATHE - OJC CLEAR 55 30 38 NW3 29.97F LAWRENCE CLEAR 55 33 43 W5 29.97F $$ MOZ001>008-011>017-020>025-030>033-038>040-044>046-053-054-190200- ...NORTHERN AND CENTRAL MISSOURI... CITY SKY/WX TMP DP RH WIND PRES REMARKS ST. JOSEPH CLEAR 54 29 38 W5 29.95F MOSBY CLEAR 55 28 35 CALM 29.96F HARRISONVILLE CLEAR 55 32 41 W3 30.00F WHITEMAN AFB CLEAR 51 40 67 S3 29.93F CLINTON CLEAR 54 39 58 CALM 29.98S SEDALIA CLEAR 52 41 66 SW6 29.98F MARSHALL CLEAR 52 41 66 SW3 29.97S CHILLICOTHE N/A 55 29 36 CALM 29.95S MOBERLY CLEAR 52 37 58 SW6 29.95F KIRKSVILLE CLEAR 53 34 48 W6 29.93S $$ MOZ041-047>049-056>058-063>065-088>090-097-190200- ...EASTERN AND SOUTHERN MISSOURI... CITY SKY/WX TMP DP RH WIND PRES REMARKS ST. LOUIS INTL PTCLDY 55 39 54 W7 29.93R SPIRIT OF STL MOCLDY 56 39 53 W9 29.93R COLUMBIA PTCLDY 51 39 63 W5 29.96S JEFFERSON CITY PTCLDY 53 41 63 W5 29.97S MEXICO CLEAR 46 41 81 W6 29.95S HANNIBAL CLEAR 52 37 58 W6 29.93S ROLLA CLEAR 51 37 58 W7 29.96S LEBANON CLEAR 46 36 66 NW5 30.01R OSAGE BEACH CLEAR 51 41 68 SW6 29.99S SPRINGFIELD MOCLDY 51 38 60 W3 29.99S BRANSON CLEAR 50 32 50 NW8 30.02S JOPLIN MOCLDY 54 36 50 W7 30.01F WEST PLAINS PTCLDY 48 38 68 NW3 29.98F SIKESTON MOCLDY 52 50 93 CALM 29.96S $$ IAZ060-094-KSZ022-034>040-054-083-096-NEZ052-066-093-190200- ...KANSAS...SOUTHEAST NEBRASKA AND IOWA... CITY SKY/WX TMP DP RH WIND PRES REMARKS TOPEKA CLEAR 56 32 40 W5 29.97F MANHATTAN CLEAR 58 28 32 W3 29.97F EMPORIA CLEAR 55 35 47 NW5 29.99S OTTAWA FAIR 55 36 47 CALM 29.98S CHANUTE PTCLDY 56 36 47 NW3 30.01S SALINA CLEAR 60 30 32 CALM 29.98F WICHITA CLEAR 56 31 38 NW6 30.00F OMAHA PTCLDY 60 27 28 SW8 29.89F LINCOLN CLEAR 59 30 33 SW6 29.92F FALLS CITY CLEAR 54 30 40 W6 29.93F DES MOINES PTCLDY 55 28 35 W8 29.89R $$

USA.gov is the U.S. government's official web portal to all federal, state and local government web resources and services.